FW2075 Johnstown CA current weather conditions

sailwx.info

Wind from 107

Air temperature 10.0° C
Dewpoint 9.5° C

Last reported at 2020-Jul-06 04:55 UTC.
Time now 2020-Jul-06 05:59 UTC

Location: N 45°49' W 060°43'.
View on Google Maps.

See reports from other nearby stations

  
Tides and Currents Weather Stations Pressure Air Temp Water Temp Dewpoint Dewpoint Depression Visibility Wind Speed Wind Dir Waves Ship Positions
date/time (UTC)wind fromknots sea level pressurealtimeterstation pressurevisibilityair tempwater tempwave heightnotes
2020-Jul-06 04:55 107 10.0
2020-Jul-06 04:50 107 10.0
2020-Jul-06 04:40 107 10.0
2020-Jul-06 04:35 107 10.0
2020-Jul-06 04:31 107 0 gusting 1 9.4
2020-Jul-06 04:25 107 0 gusting 1 9.4
2020-Jul-06 04:20 107 9.4
2020-Jul-06 04:10 107 0 gusting 1 9.4
2020-Jul-06 04:05 107 9.4
2020-Jul-06 04:00 107 9.4
2020-Jul-06 03:55 107 10.0
2020-Jul-06 03:45 107 10.0
2020-Jul-06 03:40 107 10.0
2020-Jul-06 03:35 107 10.0
2020-Jul-06 03:30 107 10.0
2020-Jul-06 03:25 107 10.0
2020-Jul-06 03:20 107 10.0
2020-Jul-06 03:10 107 10.0
2020-Jul-06 03:05 107 10.0
2020-Jul-06 03:00 107 10.0
2020-Jul-06 02:55 107 0 gusting 1 10.0
2020-Jul-06 02:50 107 10.0
2020-Jul-06 02:45 107 10.0
2020-Jul-06 02:40 107 10.0
2020-Jul-06 02:35 107 10.0
2020-Jul-06 02:30 107 10.0
2020-Jul-06 02:25 107 10.0
2020-Jul-06 02:20 107 10.0
2020-Jul-06 02:10 107 10.6
2020-Jul-06 02:05 107 10.6
2020-Jul-06 02:00 137 0 gusting 2 10.6
2020-Jul-06 01:55 155 0 gusting 3 10.6
2020-Jul-06 01:41 155 0 gusting 4 10.6
2020-Jul-06 01:40 134 0 gusting 4 10.6
2020-Jul-06 01:31 099 0 gusting 3 10.6
2020-Jul-06 01:26 095 10.6
2020-Jul-06 01:16 151 0 gusting 2 10.6
2020-Jul-06 01:10 160 10.6
2020-Jul-06 01:06 133 0 gusting 2 10.6
2020-Jul-06 01:01 141 0 gusting 2 11.1
2020-Jul-06 00:55 168 11.1
2020-Jul-06 00:51 149 11.1
2020-Jul-06 00:46 149 11.1
2020-Jul-06 00:41 149 11.1
2020-Jul-06 00:40 149 11.1
2020-Jul-06 00:31 161 0 gusting 3 11.1
2020-Jul-06 00:25 169 1 gusting 3 11.1
2020-Jul-06 00:17 165 0 gusting 3 11.7
2020-Jul-06 00:10 158 0 gusting 3 11.7
2020-Jul-06 00:06 224 0 gusting 3 11.7
2020-Jul-06 00:02 186 0 gusting 3 11.7
2020-Jul-05 23:56 229 1 gusting 3 11.7
2020-Jul-05 23:51 193 0 gusting 2 11.7
2020-Jul-05 23:46 182 0 gusting 5 11.7
2020-Jul-05 23:40 211 1 gusting 5 11.7
2020-Jul-05 23:36 161 1 gusting 4 11.7
2020-Jul-05 23:31 191 1 gusting 4 12.2
2020-Jul-05 23:25 165 0 gusting 4 12.2
2020-Jul-05 23:21 169 1 gusting 4 12.2
2020-Jul-05 23:17 161 0 gusting 5 12.2
2020-Jul-05 23:11 205 1 gusting 6 12.2
2020-Jul-05 23:05 168 1 gusting 6 12.2
2020-Jul-05 23:01 158 1 gusting 4 12.2
2020-Jul-05 22:55 165 0 gusting 6 12.2
2020-Jul-05 22:50 188 1 gusting 5 12.2
2020-Jul-05 22:47 138 1 gusting 6 12.8
2020-Jul-05 22:40 151 1 gusting 6 12.8
2020-Jul-05 22:35 171 2 gusting 6 12.8
2020-Jul-05 22:31 151 2 gusting 6 12.8
2020-Jul-05 22:25 181 2 gusting 7 12.8
2020-Jul-05 22:20 181 3 gusting 7 13.3
2020-Jul-05 22:16 172 2 gusting 7 13.3
2020-Jul-05 22:11 187 1 gusting 9 13.3
2020-Jul-05 22:06 135 2 gusting 9 13.9
2020-Jul-05 22:02 184 4 gusting 6 13.9
2020-Jul-05 21:55 131 3 gusting 7 13.9
2020-Jul-05 21:50 157 2 gusting 8 13.9
2020-Jul-05 21:46 168 1 gusting 9 13.9
2020-Jul-05 21:40 158 2 gusting 9 13.9
2020-Jul-05 21:35 186 4 gusting 10 14.4
2020-Jul-05 21:31 161 3 gusting 10 14.4
2020-Jul-05 21:25 209 2 gusting 7 15.0
2020-Jul-05 21:20 190 2 gusting 6 15.0
2020-Jul-05 21:16 201 2 gusting 6 15.6
2020-Jul-05 21:10 212 2 gusting 5 15.6
2020-Jul-05 21:05 186 2 gusting 5 16.1
2020-Jul-05 21:01 158 0 gusting 4 16.1
2020-Jul-05 20:55 110 0 gusting 4 16.1
2020-Jul-05 20:50 179 1 gusting 4 16.7
2020-Jul-05 20:46 169 1 gusting 6 17.2
2020-Jul-05 20:40 118 2 gusting 8 17.2
2020-Jul-05 20:35 176 2 gusting 8 17.8
2020-Jul-05 20:30 172 1 gusting 6 17.8
2020-Jul-05 20:25 160 1 gusting 6 18.3
2020-Jul-05 20:20 176 1 gusting 7 18.9
2020-Jul-05 20:16 158 1 gusting 6 18.9
2020-Jul-05 20:10 172 2 gusting 5 18.9
2020-Jul-05 20:06 178 2 gusting 4 18.9
2020-Jul-05 20:01 156 1 gusting 5 18.9
2020-Jul-05 19:55 136 0 gusting 5 19.4
2020-Jul-05 19:50 146 0 gusting 5 19.4
2020-Jul-05 19:46 135 2 gusting 5 18.9
2020-Jul-05 19:40 139 2 gusting 6 18.9
2020-Jul-05 19:35 176 1 gusting 6 18.3
2020-Jul-05 19:32 141 1 gusting 6 18.3
2020-Jul-05 19:25 171 1 gusting 6 18.3
2020-Jul-05 19:20 085 1 gusting 6 18.9
2020-Jul-05 19:16 157 1 gusting 5 18.9
2020-Jul-05 19:10 158 0 gusting 3 18.9
2020-Jul-05 19:06 108 0 gusting 5 18.9
2020-Jul-05 19:01 139 1 gusting 6 19.4
2020-Jul-05 18:55 026 0 gusting 6 19.4
2020-Jul-05 18:50 136 0 gusting 6 19.4
2020-Jul-05 18:46 115 1 gusting 6 19.4
2020-Jul-05 18:40 155 1 gusting 5 19.4
2020-Jul-05 18:35 095 1 gusting 6 19.4
2020-Jul-05 18:31 010 1 gusting 6 19.4
2020-Jul-05 18:25 061 1 gusting 5 19.4
2020-Jul-05 18:20 032 1 gusting 4 19.4
2020-Jul-05 18:15 026 0 gusting 6 19.4
2020-Jul-05 18:10 019 1 gusting 6 19.4
2020-Jul-05 18:05 356 0 gusting 4 18.9
2020-Jul-05 18:00 359 0 gusting 6 18.3
2020-Jul-05 17:55 085 2 gusting 6 18.9
2020-Jul-05 17:50 348 2 gusting 6 18.9
2020-Jul-05 17:46 259 2 gusting 6 18.9
2020-Jul-05 17:40 259 1 gusting 6 18.9
2020-Jul-05 17:35 327 3 gusting 6 18.9
2020-Jul-05 17:31 351 2 gusting 6 18.9
2020-Jul-05 17:25 284 3 gusting 6 18.3
2020-Jul-05 17:20 355 1 gusting 6 18.3
2020-Jul-05 17:15 359 2 gusting 6 18.3
2020-Jul-05 17:10 354 3 gusting 6 18.3
2020-Jul-05 17:05 347 2 gusting 6 18.3
2020-Jul-05 17:01 349 2 gusting 6 18.3
2020-Jul-05 16:55 011 2 gusting 7 17.8
2020-Jul-05 16:50 320 3 gusting 6 17.8
2020-Jul-05 16:45 005 2 gusting 6 17.8
2020-Jul-05 16:40 357 2 gusting 6 17.2
2020-Jul-05 16:35 336 4 gusting 6 17.2
2020-Jul-05 16:30 340 3 gusting 7 17.2
2020-Jul-05 16:25 018 3 gusting 7 16.7
2020-Jul-05 16:15 340 2 gusting 6 16.1
2020-Jul-05 16:10 020 1 gusting 3 16.1
2020-Jul-05 16:05 341 15.6
2020-Jul-05 16:00 090 2 gusting 6 15.6
2020-Jul-05 15:55 095 0 gusting 5 15.6
2020-Jul-05 15:50 177 1 gusting 4 15.6
2020-Jul-05 15:45 102 1 gusting 4 15.0
2020-Jul-05 15:40 126 0 gusting 4 15.0
2020-Jul-05 15:35 114 0 gusting 4 15.0
2020-Jul-05 15:30 139 1 gusting 4 15.0
2020-Jul-05 15:25 188 0 gusting 3 15.0
2020-Jul-05 15:20 065 0 gusting 3 15.0
2020-Jul-05 15:15 108 0 gusting 3 15.0
2020-Jul-05 15:10 342 15.0
2020-Jul-05 15:05 342 1 gusting 4 15.0
2020-Jul-05 14:55 335 1 gusting 4 14.4
2020-Jul-05 14:50 305 1 gusting 3 14.4
2020-Jul-05 14:47 320 14.4
2020-Jul-05 14:45 319 14.4
2020-Jul-05 14:36 330 0 gusting 4 14.4
2020-Jul-05 14:31 330 0 gusting 4 14.4
2020-Jul-05 14:26 277 0 gusting 3 14.4
2020-Jul-05 14:21 321 14.4
2020-Jul-05 14:18 335 0 gusting 3 14.4
2020-Jul-05 14:11 326 1 gusting 2 14.4
2020-Jul-05 14:05 282 0 gusting 2 14.4
2020-Jul-05 14:01 232 0 gusting 2 13.9
2020-Jul-05 13:55 303 13.9
2020-Jul-05 13:50 292 0 gusting 2 13.9
2020-Jul-05 13:46 168 0 gusting 3 13.9
2020-Jul-05 13:41 108 0 gusting 3 13.9
2020-Jul-05 13:36 176 0 gusting 3 13.9
2020-Jul-05 13:32 290 13.9
2020-Jul-05 13:25 338 0 gusting 6 13.9
2020-Jul-05 13:20 338 1 gusting 6 13.9
2020-Jul-05 13:16 280 0 gusting 4 13.9
2020-Jul-05 13:11 287 1 gusting 3 13.3
2020-Jul-05 13:05 245 0 gusting 5 13.3
2020-Jul-05 13:01 358 1 gusting 5 13.3
2020-Jul-05 12:55 010 1 gusting 4 12.8
2020-Jul-05 12:50 136 1 gusting 5 12.8
2020-Jul-05 12:46 064 2 gusting 5 12.8
2020-Jul-05 12:40 085 2 gusting 5 12.8
2020-Jul-05 12:35 066 2 gusting 5 12.8
2020-Jul-05 12:32 074 0 gusting 3 12.8
2020-Jul-05 12:26 199 1 gusting 4 12.2
2020-Jul-05 12:20 078 1 gusting 4 12.2
2020-Jul-05 12:16 151 12.2
2020-Jul-05 12:10 128 1 gusting 6 12.2
2020-Jul-05 12:05 105 1 gusting 6 11.7
2020-Jul-05 12:01 085 1 gusting 4 11.7
2020-Jul-05 11:55 069 11.1
2020-Jul-05 11:50 195 0 gusting 3 11.1
2020-Jul-05 11:46 079 11.1
2020-Jul-05 11:40 134 0 gusting 3 10.6
2020-Jul-05 11:35 085 0 gusting 4 10.6
2020-Jul-05 11:30 104 0 gusting 4 10.6
2020-Jul-05 11:25 090 1 gusting 4 10.6
2020-Jul-05 11:20 062 0 gusting 4 10.6
2020-Jul-05 11:15 069 1 gusting 4 10.6
2020-Jul-05 11:10 090 1 gusting 4 10.0
2020-Jul-05 11:05 109 1 gusting 5 10.0
2020-Jul-05 11:00 128 2 gusting 5 10.0
2020-Jul-05 10:55 095 1 gusting 4 10.0
2020-Jul-05 10:50 085 1 gusting 3 10.0
2020-Jul-05 10:46 110 0 gusting 3 10.0
2020-Jul-05 10:40 095 10.0
2020-Jul-05 10:35 095 10.0
2020-Jul-05 10:31 095 0 gusting 2 10.0
2020-Jul-05 10:25 095 0 gusting 3 10.0
2020-Jul-05 10:20 090 0 gusting 3 10.0
2020-Jul-05 10:16 074 9.4
2020-Jul-05 10:10 106 9.4
2020-Jul-05 10:05 106 9.4
2020-Jul-05 10:00 106 9.4
2020-Jul-05 09:55 106 0 gusting 3 9.4
2020-Jul-05 09:50 106 0 gusting 3 9.4
2020-Jul-05 09:45 129 0 gusting 2 9.4
2020-Jul-05 09:40 128 0 gusting 2 9.4
2020-Jul-05 09:35 095 9.4
2020-Jul-05 09:31 095 0 gusting 2 9.4
2020-Jul-05 09:25 090 0 gusting 1 9.4
2020-Jul-05 09:15 090 9.4
2020-Jul-05 09:10 090 9.4
2020-Jul-05 09:05 090 9.4
2020-Jul-05 08:55 090 9.4
2020-Jul-05 08:45 090 9.4
2020-Jul-05 08:40 090 9.4
2020-Jul-05 08:35 090 9.4
2020-Jul-05 08:25 090 9.4
2020-Jul-05 08:20 090 9.4
2020-Jul-05 08:15 090 9.4
2020-Jul-05 08:10 090 9.4
2020-Jul-05 08:00 090 9.4
2020-Jul-05 07:55 090 0 gusting 2 9.4
2020-Jul-05 07:50 095 0 gusting 2 9.4
2020-Jul-05 07:45 095 9.4
2020-Jul-05 07:40 095 9.4
2020-Jul-05 07:35 095 0 gusting 2 9.4
2020-Jul-05 07:30 111 0 gusting 2 9.4
2020-Jul-05 07:25 112 0 gusting 2 9.4
2020-Jul-05 07:20 105 0 gusting 1 9.4
2020-Jul-05 07:15 105 9.4
2020-Jul-05 07:10 105 9.4
2020-Jul-05 07:05 105 9.4
2020-Jul-05 07:00 105 9.4
2020-Jul-05 06:55 105 9.4
2020-Jul-05 06:50 105 0 gusting 2 10.0
2020-Jul-05 06:45 116 10.0
2020-Jul-05 06:40 116 9.4
2020-Jul-05 06:35 116 10.0
2020-Jul-05 06:26 116 9.4
2020-Jul-05 06:21 116 9.4
2020-Jul-05 06:17 116 9.4
2020-Jul-05 06:11 116 9.4
2020-Jul-05 06:05 116 9.4
2020-Jul-05 06:01 116 0 gusting 2 9.4
2020-Jul-05 05:56 095 0 gusting 1 9.4
2020-Jul-05 05:50 095 9.4
2020-Jul-05 05:47 095 9.4
2020-Jul-05 05:41 099 9.4
2020-Jul-05 05:35 099 9.4
2020-Jul-05 05:31 099 0 gusting 3 9.4
2020-Jul-05 05:26 095 1 gusting 2 10.0
2020-Jul-05 05:21 126 0 gusting 3 10.0
2020-Jul-05 05:16 077 0 gusting 3 10.0
2020-Jul-05 05:11 073 1 gusting 5 10.0
2020-Jul-05 05:05 085 1 gusting 6 10.0
2020-Jul-05 05:01 100 2 gusting 6 10.0
2020-Jul-05 04:56 059 1 gusting 5 10.0
2020-Jul-05 04:50 047 0 gusting 5 10.0
2020-Jul-05 04:48 035 1 gusting 5 10.0
2020-Jul-05 04:40 055 1 gusting 3 10.0
2020-Jul-05 04:35 112 0 gusting 2 10.0
2020-Jul-05 04:31 024 0 gusting 4 10.0
2020-Jul-05 04:25 075 1 gusting 4 10.0
2020-Jul-05 04:20 085 0 gusting 2 10.0
2020-Jul-05 04:16 072 0 gusting 3 10.0
2020-Jul-05 04:10 090 1 gusting 3 10.0
2020-Jul-05 04:05 085 10.0
2020-Jul-05 04:02 090 10.0
2020-Jul-05 03:50 095 0 gusting 2 10.0
2020-Jul-05 03:49 095 0 gusting 1 10.0
2020-Jul-05 03:40 095 0 gusting 1 10.0
2020-Jul-05 03:35 095 10.0
2020-Jul-05 03:31 095 10.0
2020-Jul-05 03:25 090 1 gusting 3 10.0
2020-Jul-05 03:21 117 0 gusting 4 10.0
2020-Jul-05 03:16 117 1 gusting 3 10.0
2020-Jul-05 03:10 095 1 gusting 4 10.0
2020-Jul-05 03:05 095 1 gusting 4 10.0
2020-Jul-05 03:01 118 0 gusting 3 10.0
2020-Jul-05 02:55 108 0 gusting 3 10.0
2020-Jul-05 02:50 106 0 gusting 3 10.0
2020-Jul-05 02:46 085 0 gusting 3 10.0
2020-Jul-05 02:40 077 0 gusting 3 10.0
2020-Jul-05 02:35 070 1 gusting 3 10.6
2020-Jul-05 02:31 065 0 gusting 3 10.6
2020-Jul-05 02:25 062 0 gusting 3 10.6
2020-Jul-05 02:20 095 0 gusting 5 10.6
2020-Jul-05 02:16 139 2 gusting 5 10.6
2020-Jul-05 02:10 090 0 gusting 3 10.6
2020-Jul-05 02:05 090 10.6
2020-Jul-05 02:01 090 0 gusting 4 10.6
2020-Jul-05 01:56 090 1 gusting 4 10.6
2020-Jul-05 01:50 085 10.6
2020-Jul-05 01:46 076 10.6
2020-Jul-05 01:40 067 10.6
2020-Jul-05 01:35 067 0 gusting 4 10.6
2020-Jul-05 01:30 124 2 gusting 4 10.6
2020-Jul-05 01:25 085 1 gusting 3 10.6
2020-Jul-05 01:20 070 0 gusting 3 10.6
2020-Jul-05 01:05 053 1 gusting 6 10.6
2020-Jul-05 01:00 080 3 gusting 6 10.6
2020-Jul-05 00:55 085 1 gusting 6 10.6
2020-Jul-05 00:50 037 1 gusting 6 10.6
2020-Jul-05 00:46 090 2 gusting 5 10.6
2020-Jul-05 00:40 081 1 gusting 8 10.6
2020-Jul-05 00:35 066 2 gusting 8 10.6
2020-Jul-05 00:30 095 1 gusting 6 11.1
2020-Jul-05 00:25 114 0 gusting 3 11.1
2020-Jul-05 00:20 085 11.1
2020-Jul-05 00:15 085 0 gusting 3 11.1
2020-Jul-05 00:10 085 0 gusting 3 11.1
2020-Jul-05 00:05 077 1 gusting 6 11.1
2020-Jul-05 00:00 078 1 gusting 6 11.1
2020-Jul-04 23:55 059 1 gusting 6 11.1
2020-Jul-04 23:51 078 0 gusting 3 11.1
2020-Jul-04 23:46 078 0 gusting 4 11.1
2020-Jul-04 23:40 085 1 gusting 4 11.1
2020-Jul-04 23:35 078 1 gusting 6 11.1
2020-Jul-04 23:30 072 3 gusting 7 11.1
2020-Jul-04 23:25 085 2 gusting 7 11.7
2020-Jul-04 23:20 078 2 gusting 8 11.7
2020-Jul-04 23:15 101 2 gusting 9 11.7
2020-Jul-04 23:10 090 1 gusting 9 11.7
2020-Jul-04 23:05 078 1 gusting 5 11.7
2020-Jul-04 23:01 099 2 gusting 6 11.7
2020-Jul-04 22:55 073 1 gusting 6 12.2
2020-Jul-04 22:50 034 2 gusting 6 12.2
2020-Jul-04 22:45 109 1 gusting 6 12.2
2020-Jul-04 22:40 072 2 gusting 5 12.2
2020-Jul-04 22:35 101 1 gusting 6 12.2
2020-Jul-04 22:30 081 2 gusting 6 12.2
2020-Jul-04 22:25 118 2 gusting 6 12.2
2020-Jul-04 22:20 039 2 gusting 8 12.2
2020-Jul-04 22:15 060 2 gusting 7 12.8
2020-Jul-04 22:10 057 0 gusting 4 12.8
2020-Jul-04 22:05 067 1 gusting 6 12.8
2020-Jul-04 22:00 132 0 gusting 7 12.8
2020-Jul-04 21:55 117 4 gusting 7 12.8
2020-Jul-04 21:50 085 1 gusting 5 12.8
2020-Jul-04 21:45 076 0 gusting 4 12.8
2020-Jul-04 21:40 085 2 gusting 6 12.8
2020-Jul-04 21:35 120 3 gusting 6 12.8
2020-Jul-04 21:30 134 1 gusting 6 13.3
2020-Jul-04 21:25 081 2 gusting 8 13.3
2020-Jul-04 21:20 095 2 gusting 8 13.3
2020-Jul-04 21:15 095 1 gusting 8 13.3
2020-Jul-04 21:10 090 2 gusting 8 13.3
2020-Jul-04 21:05 095 1 gusting 8 13.3
2020-Jul-04 21:00 090 1 gusting 6 13.9
2020-Jul-04 20:55 056 0 gusting 3 13.3
2020-Jul-04 20:50 085 1 gusting 5 13.9
2020-Jul-04 20:45 114 2 gusting 5 13.9
2020-Jul-04 20:40 109 0 gusting 5 13.9
2020-Jul-04 20:35 076 1 gusting 5 13.9
2020-Jul-04 20:31 130 1 gusting 5 13.9
2020-Jul-04 20:25 138 0 gusting 5 13.9
2020-Jul-04 20:20 143 0 gusting 7 13.9
2020-Jul-04 20:16 128 0 gusting 7 13.9
2020-Jul-04 20:10 105 1 gusting 6 14.4
2020-Jul-04 20:05 141 2 gusting 5 14.4
2020-Jul-04 20:00 105 0 gusting 7 14.4
2020-Jul-04 19:55 103 0 gusting 7 13.9
2020-Jul-04 19:50 120 1 gusting 5 13.9
2020-Jul-04 19:45 148 1 gusting 7 13.9
2020-Jul-04 19:40 139 3 gusting 7 14.4
2020-Jul-04 19:35 126 3 gusting 7 14.4
2020-Jul-04 19:30 085 1 gusting 7 14.4
2020-Jul-04 19:25 107 2 gusting 7 15.0
2020-Jul-04 19:20 138 0 gusting 7 15.0
2020-Jul-04 19:10 070 0 gusting 5 15.0
2020-Jul-04 19:05 184 1 gusting 5 15.0
2020-Jul-04 18:55 196 0 gusting 7 14.4
2020-Jul-04 18:50 150 2 gusting 9 15.0
2020-Jul-04 18:45 069 2 gusting 9 15.0
2020-Jul-04 18:40 114 2 gusting 7 15.0
2020-Jul-04 18:30 085 2 gusting 8 15.0
2020-Jul-04 18:25 127 2 gusting 8 15.0
2020-Jul-04 18:20 133 1 gusting 9 15.0
2020-Jul-04 18:15 143 3 gusting 9 15.0
2020-Jul-04 18:10 060 1 gusting 8 15.0
2020-Jul-04 18:05 095 4 gusting 8 15.0
2020-Jul-04 17:55 095 2 gusting 8 15.6
2020-Jul-04 17:50 102 2 gusting 8 15.6
2020-Jul-04 17:45 162 0 gusting 9 15.6
2020-Jul-04 17:40 081 2 gusting 9 15.6
2020-Jul-04 17:35 099 2 gusting 6 16.1
2020-Jul-04 17:25 155 3 gusting 9 16.7
2020-Jul-04 17:15 095 2 gusting 13 16.1
2020-Jul-04 17:10 145 1 gusting 10 16.1
2020-Jul-04 17:05 136 3 gusting 10 16.1
2020-Jul-04 16:55 090 4 gusting 10 15.6
2020-Jul-04 16:50 159 4 gusting 13 15.6
2020-Jul-04 16:45 062 4 gusting 13 15.6
2020-Jul-04 16:36 149 1 gusting 9 15.6
2020-Jul-04 16:31 116 3 gusting 9 15.6
2020-Jul-04 16:25 109 2 gusting 9 15.6
2020-Jul-04 16:21 132 3 gusting 8 15.6
2020-Jul-04 16:16 095 3 gusting 9 15.6
2020-Jul-04 16:10 095 1 gusting 9 15.6
2020-Jul-04 16:05 145 0 gusting 8 15.6
2020-Jul-04 16:01 139 2 gusting 8 16.1
2020-Jul-04 15:56 090 2 gusting 8 15.6
2020-Jul-04 15:50 109 4 gusting 9 15.6
2020-Jul-04 15:46 357 0 gusting 8 15.6
2020-Jul-04 15:40 018 1 gusting 6 15.6
2020-Jul-04 15:36 150 2 gusting 6 15.0
2020-Jul-04 15:31 199 2 gusting 8 15.0
2020-Jul-04 15:26 090 3 gusting 8 15.0
2020-Jul-04 15:20 143 3 gusting 6 15.0
2020-Jul-04 15:16 101 2 gusting 8 15.0
2020-Jul-04 15:10 077 1 gusting 8 15.0
2020-Jul-04 15:05 027 1 gusting 6 15.0
2020-Jul-04 15:01 113 3 gusting 8 14.4
2020-Jul-04 14:55 045 3 gusting 8 14.4
2020-Jul-04 14:50 076 0 gusting 5 14.4
2020-Jul-04 14:47 095 1 gusting 5 14.4
2020-Jul-04 14:40 095 2 gusting 5 14.4
2020-Jul-04 14:35 066 0 gusting 6 14.4
2020-Jul-04 14:31 124 1 gusting 10 14.4
2020-Jul-04 14:25 074 2 gusting 7 14.4
2020-Jul-04 14:20 107 2 gusting 7 14.4
2020-Jul-04 14:16 119 1 gusting 6 14.4
2020-Jul-04 14:10 059 0 gusting 3 14.4
2020-Jul-04 14:05 143 0 gusting 4 14.4
2020-Jul-04 14:02 128 0 gusting 3 14.4
2020-Jul-04 13:55 124 14.4
2020-Jul-04 13:51 116 0 gusting 5 13.9
2020-Jul-04 13:46 130 1 gusting 5 13.9
2020-Jul-04 13:40 070 1 gusting 6 13.9
2020-Jul-04 13:35 101 1 gusting 6 13.9
2020-Jul-04 13:32 128 2 gusting 5 13.9
2020-Jul-04 13:25 114 0 gusting 6 13.9
2020-Jul-04 13:20 101 2 gusting 5 13.9
2020-Jul-04 13:16 118 0 gusting 6 13.9
2020-Jul-04 13:10 140 2 gusting 8 13.3
2020-Jul-04 13:06 107 2 gusting 8 13.3
2020-Jul-04 13:00 110 2 gusting 6 13.3
2020-Jul-04 12:55 085 1 gusting 6 13.3
2020-Jul-04 12:50 058 1 gusting 6 13.3
2020-Jul-04 12:45 106 0 gusting 4 12.8
2020-Jul-04 12:40 134 2 gusting 8 13.3
2020-Jul-04 12:35 199 2 gusting 8 13.3
2020-Jul-04 12:25 016 1 gusting 6 13.3
2020-Jul-04 12:20 078 1 gusting 6 13.3
2020-Jul-04 12:16 085 0 gusting 6 13.3
2020-Jul-04 12:10 118 2 gusting 6 12.8
2020-Jul-04 12:05 085 12.8
2020-Jul-04 12:00 074 1 gusting 3 12.8
2020-Jul-04 11:55 099 12.8
2020-Jul-04 11:50 133 1 gusting 5 12.2
2020-Jul-04 11:45 134 2 gusting 5 12.2
2020-Jul-04 11:40 125 0 gusting 6 12.2
2020-Jul-04 11:35 085 1 gusting 6 12.2
2020-Jul-04 11:30 115 2 gusting 5 12.2
2020-Jul-04 11:25 114 1 gusting 7 12.2
2020-Jul-04 11:20 051 0 gusting 7 12.2
2020-Jul-04 11:15 139 1 gusting 5 12.2
2020-Jul-04 11:11 085 0 gusting 4 12.2
2020-Jul-04 11:06 105 0 gusting 4 12.2
2020-Jul-04 11:02 036 0 gusting 3 12.2
2020-Jul-04 10:55 131 12.2
2020-Jul-04 10:50 131 11.7
2020-Jul-04 10:45 129 0 gusting 2 11.7
2020-Jul-04 10:40 127 0 gusting 2 11.7
2020-Jul-04 10:35 127 11.7
2020-Jul-04 10:30 130 11.7
2020-Jul-04 10:25 121 11.7
2020-Jul-04 10:20 114 2 gusting 7 11.7
2020-Jul-04 10:15 118 1 gusting 3 11.7
2020-Jul-04 10:10 102 1 gusting 3 11.7
2020-Jul-04 10:05 100 11.7
2020-Jul-04 10:00 104 11.7
2020-Jul-04 09:55 104 0 gusting 2 11.7
2020-Jul-04 09:50 102 11.1
2020-Jul-04 09:46 100 0 gusting 3 11.1
2020-Jul-04 09:40 137 0 gusting 2 11.1
2020-Jul-04 09:35 140 11.1
2020-Jul-04 09:30 140 11.1
2020-Jul-04 09:25 140 11.1
2020-Jul-04 09:20 140 11.1
2020-Jul-04 09:15 140 11.1
2020-Jul-04 09:10 140 11.1
2020-Jul-04 09:00 156 0 gusting 2 10.6
2020-Jul-04 08:55 156 0 gusting 2 10.6
2020-Jul-04 08:50 099 10.6
2020-Jul-04 08:45 099 10.6
2020-Jul-04 08:40 099 10.6
2020-Jul-04 08:35 095 10.6
2020-Jul-04 08:25 043 10.6
2020-Jul-04 08:20 043 10.6
2020-Jul-04 08:10 043 10.6
2020-Jul-04 07:55 115 11.1
2020-Jul-04 07:50 112 11.1
2020-Jul-04 07:40 128 11.1
2020-Jul-04 07:35 128 11.1
2020-Jul-04 07:25 085 11.1
2020-Jul-04 07:20 085 0 gusting 1 11.1
2020-Jul-04 07:15 085 11.1
2020-Jul-04 07:10 085 11.1
2020-Jul-04 07:05 085 11.1
2020-Jul-04 07:00 085 11.1
2020-Jul-04 06:55 085 11.1
2020-Jul-04 06:45 085 11.1
2020-Jul-04 06:40 085 11.1
2020-Jul-04 06:35 085 11.1
2020-Jul-04 06:30 085 0 gusting 4 11.1
2020-Jul-04 06:21 075 0 gusting 3 11.1
2020-Jul-04 06:15 085 0 gusting 3 11.1
2020-Jul-04 06:10 127 0 gusting 5 11.1
2020-Jul-04 06:05 138 2 gusting 5 11.1
2020-Jul-04 05:55 059 2 gusting 5 11.1
2020-Jul-04 05:45 151 1 gusting 7 11.1
2020-Jul-04 05:40 146 1 gusting 7 11.1
2020-Jul-04 05:35 126 2 gusting 5 11.1
2020-Jul-04 05:25 153 2 gusting 5 11.1
2020-Jul-04 05:20 095 1 gusting 5 11.1
2020-Jul-04 05:15 150 0 gusting 6 11.1
2020-Jul-04 05:10 157 0 gusting 6 11.1
2020-Jul-04 05:05 141 0 gusting 3 11.1
2020-Jul-04 05:00 109 1 gusting 4 11.1